Regional Weather Roundup
Issued by NWS

Home | Current Version | Previous Version | Graphics & Text | Print | Product List | Glossary On
Versions: 1 2 3 4 5 6 7 8 9 10 11 12 13 14 15 16 17 18 19 20 21 22 23 24 25 26 27 28 29 30 31 32 33 34 35 36 37 38 39 40 41 42 43 44 45 46 47 48 49 50
000
ASUS45 KABQ 160510
RWRNM
WEATHER ROUNDUP FOR NEW MEXICO
NATIONAL WEATHER SERVICE ALBUQUERQUE NM
1100 PM MDT MON SEP 15 2014

NOTE: "FAIR" MEANS FEW OR NO CLOUDS BELOW 12,000 FEET AGL WITH NO
       SIGNIFICANT WEATHER OR OBSTRUCTIONS TO VISION.

      THIS PRODUCT IS RELEASED AS TWO VERSIONS.  ONE VERSION NEAR
      THE TOP OF THE HOUR CONTAINING PRELIMINARY DATA FROM ALBUQUERQUE
      AND OTHER STATIONS.  A FINAL VERSION WITH ADDITIONAL DATA IS
      ISSUED ABOUT 10 MINUTES AFTER THE HOUR.

NMZ501-503-504-510>518-160600-
NORTHWEST PLATEAU/NORTHCENTRAL MOUNTAINS

CITY           SKY/WX    TMP DP  RH WIND       PRES   REMARKS
FARMINGTON     CLEAR     72  43  35 E7        30.22R
LOS ALAMOS     PTCLDY    61  52  72 SW9       30.44R
SANTA FE       MOCLDY    63  53  70 S12       30.38R
ANGEL FIRE     CLOUDY    45  41  85 CALM      30.53S

$$
NMZ402-403-502-505>509-160600-
WESTCENTRAL MOUNTAINS/SOUTHWEST MOUNTAINS

CITY           SKY/WX    TMP DP  RH WIND       PRES   REMARKS
GALLUP         CLOUDY    62  53  72 E10       30.34R
GRANTS         MOCLDY    63  52  67 SE16G33   30.38R
SILVER CITY    CLOUDY    70  57  64 SE9       30.29R

$$
NMZ407-409-411-412-160600-
SOUTHERN DESERTS

CITY           SKY/WX    TMP DP  RH WIND       PRES   REMARKS
LORDSBURG      CLOUDY    72  55  56 S13       30.19R
DEMING         CLOUDY    73  61  65 SE9       30.21R
LAS CRUCES     LGT RAIN  70  62  76 SE5       30.24S
HOLLOMAN AFB   MOCLDY    74  60  62 S8        30.21R
ALAMOGORDO     CLOUDY    72  59  64 S8        30.23R
T OR C         CLOUDY    73  58  59 S7        30.24R

$$
NMZ519>523-160600-
CENTRAL VALLEYS/CENTRAL HIGHLANDS

CITY           SKY/WX    TMP DP  RH WIND       PRES   REMARKS
ALBUQUERQUE    CLOUDY    68  57  68 SE6       30.31R
DOUBLE EAGLE   DRIZZLE   66  58  77 S12       30.33F
MORIARTY ARPT  CLOUDY    61  55  81 E8        30.41R
CLINES CORNERS CLOUDY    58  53  84 E15       30.42S
BELEN          LGT RAIN  65  59  82 W10G16    30.31R
SOCORRO        CLOUDY    63  61  94 W9        30.29S

$$
NMZ524>526-539-540-160600-
SOUTHCENTRAL MOUNTAINS

CITY           SKY/WX    TMP DP  RH WIND       PRES   REMARKS
RUIDOSO        CLOUDY    59  57  94 SE9       30.43S

$$
NMZ527>531-160600-
NORTHEAST HIGHLANDS/NORTHEAST PLAINS

CITY           SKY/WX    TMP DP  RH WIND       PRES   REMARKS
LAS VEGAS      PTCLDY    54  51  90 CALM      30.43F
RATON          MOCLDY    55  51  86 SW9       30.38S
CLAYTON        CLOUDY    55  53  93 NE5       30.34F

$$
NMZ532>537-160600-
EASTCENTRAL PLAINS

CITY           SKY/WX    TMP DP  RH WIND       PRES   REMARKS
TUCUMCARI      CLOUDY    64  55  72 NE6       30.31S
CANNON AFB     MOCLDY    62  59  89 NE13      30.31S
CLOVIS AIRPORT   N/A     63  55  77 NE13      30.34R

$$
NMZ028-029-538-160600-
SOUTHEAST PLAINS

CITY           SKY/WX    TMP DP  RH WIND       PRES   REMARKS
ROSWELL        CLOUDY    68  64  87 SE5       30.25R
CARLSBAD       CLOUDY    71  71 100 CALM      30.22R
HOBBS          CLOUDY    66  66 100 CALM      30.26R


$$


USA.gov is the U.S. government's official web portal to all federal, state and local government web resources and services.